FLYING LAPTOP

导读

FLYING LAPTOP是一颗由德国(DE)于2017年7月14日08:00发射的卫星,作为欧洲小型航天项目的产物,它承载着德国航天领域对低成本航天技术的探索。该卫星依托小卫星平台开展相关技术验证,旨在测试新型空间载荷与星上处理方案,为后续德国微纳卫星技术发展积累空间运行经验,推动欧洲民间与学术领域航天创新,是德国航天多元发展布局中的微小卫星探索实践代表。

基本信息
目录编号:
42831
目录名称:
FLYING LAPTOP
国际标识:
2017-042G
轨道中心:
EARTH
卫星名称:
FLYING LAPTOP
卫星全名:
--
卫星状态:
在轨 (已飞行3340 天)
发射日期:
2017-07-14 UTC
国别 :
德国 (DE)
星等 :
--
轨道信息
数据来源 国际轨道数据
星历时间: 2026-09-05T03:54:39+0800
4小时前
查看轨道信息
半长轴: 6940.247km
偏心率: 0.001581
轨道倾角: 97.499°
近地点辐角 212.434°
升交点赤经 40.492°
平近点角 147.592°
近地点: 551.137km
远地点: 573.083km
周期: 95.901分钟
每日圈数: 15.015522
详细信息
使用方式:
暂无
2D轨道图
3D轨道图
轨道高度分析图
轨道倾角分析图
轨道综合分析图
查看轨道综合分析图
交会数据列表
事件ID 空间交会对象 最接近时刻(TCA) 交会距离 交会风险概率(CRP) 交会风险指数(CRI) 操作
CDM_260906-231004-283105-680522
2026-09-06T
23:10:43+0000
0.969 km
远距离
3.065985E-5 中风险 0.65
CDM_260905-151504-283105-677923
2026-09-05T
15:15:38+0000
1.257 km
极远距离
1.234366E-5 中风险 0.57
CDM_260907-084404-283106-479521
2026-09-07T
08:44:44+0000
1.104 km
极远距离
7.356323E-6 低风险 0.52
CDM_260906-023004-283105-543024
2026-09-06T
02:30:52+0000
1.655 km
极远距离
2.54139E-6 低风险 0.43